• In Netherlands
  • List of Countries
  • For 7 days
  • Water Temperature
  • Satellite Maps
  • Weather Map
  • Weather Widgets
  • user-avatar
    Login

    Hourly Weather Sydney

    Today, 21 July, Friday

    Time Temperature Precipitation Wind Pressure Humidity
    00:00 +5°C° 0 mm 6 mps 762 mmHg 68%
    01:00 +5°C° 0 mm 6 mps 762 mmHg 71%
    02:00 +4°C° 0 mm 6 mps 762 mmHg 72%
    03:00 +4°C° 0 mm 6 mps 762 mmHg 73%
    04:00 +4°C° 0 mm 6 mps 763 mmHg 73%
    05:00 +4°C° 0 mm 6 mps 763 mmHg 72%
    06:00 +4°C° 0 mm 6 mps 763 mmHg 70%
    07:00 +3°C° 0 mm 6 mps 764 mmHg 68%
    08:00 +7°C° 0.1 mm 6 mps 764 mmHg 62%
    09:00 +9°C° 0.1 mm 7 mps 764 mmHg 56%
    10:00 +12°C° 0 mm 7 mps 764 mmHg 50%
    11:00 +14°C° 0.1 mm 7 mps 764 mmHg 48%
    12:00 +15°C° 0.1 mm 7 mps 764 mmHg 46%
    13:00 +16°C° 0.1 mm 6 mps 764 mmHg 44%
    14:00 +16°C° 0 mm 6 mps 764 mmHg 44%
    15:00 +16°C° 0 mm 6 mps 764 mmHg 45%
    16:00 +16°C° 0 mm 5 mps 764 mmHg 46%
    17:00 +14°C° 0 mm 5 mps 765 mmHg 53%
    18:00 +12°C° 0 mm 5 mps 765 mmHg 60%
    19:00 +10°C° 0 mm 4 mps 766 mmHg 67%
    20:00 +8°C° 0 mm 4 mps 766 mmHg 68%
    21:00 +8°C° 0 mm 4 mps 766 mmHg 70%
    22:00 +7°C° 0 mm 4 mps 767 mmHg 72%
    23:00 +7°C° 0 mm 4 mps 767 mmHg 72%

    Tomorrow, 22 July, Saturday

    Time Temperature Precipitation Wind Pressure Humidity
    00:00 +6°C° 0 mm 4 mps 767 mmHg 72%
    01:00 +6°C° 0 mm 4 mps 767 mmHg 72%
    02:00 +5°C° 0 mm 4 mps 767 mmHg 72%
    03:00 +5°C° 0 mm 3 mps 767 mmHg 72%
    04:00 +5°C° 0 mm 3 mps 766 mmHg 73%
    05:00 +5°C° 0 mm 3 mps 767 mmHg 73%
    06:00 +4°C° 0 mm 3 mps 767 mmHg 74%
    07:00 +4°C° 0 mm 3 mps 767 mmHg 74%
    08:00 +8°C° 0 mm 3 mps 767 mmHg 65%
    09:00 +11°C° 0 mm 3 mps 767 mmHg 55%
    10:00 +14°C° 0 mm 2 mps 767 mmHg 45%
    11:00 +16°C° 0 mm 2 mps 766 mmHg 39%
    12:00 +18°C° 0 mm 2 mps 765 mmHg 34%
    13:00 +20°C° 0 mm 2 mps 764 mmHg 28%
    14:00 +20°C° 0 mm 2 mps 764 mmHg 29%
    15:00 +20°C° 0 mm 2 mps 764 mmHg 30%
    16:00 +19°C° 0 mm 2 mps 763 mmHg 31%
    17:00 +17°C° 0 mm 3 mps 764 mmHg 36%
    18:00 +14°C° 0 mm 3 mps 764 mmHg 41%
    19:00 +12°C° 0 mm 4 mps 764 mmHg 46%
    20:00 +11°C° 0 mm 4 mps 764 mmHg 48%
    21:00 +10°C° 0 mm 4 mps 764 mmHg 50%
    22:00 +8°C° 0 mm 4 mps 764 mmHg 52%
    23:00 +7°C° 0 mm 4 mps 764 mmHg 54%

    Day after tomorrow, 23 July, Sunday

    Time Temperature Precipitation Wind Pressure Humidity
    00:00 +7°C° 0 mm 4 mps 764 mmHg 56%
    01:00 +6°C° 0 mm 4 mps 764 mmHg 58%
    02:00 +7°C° 0 mm 3 mps 764 mmHg 58%
    03:00 +7°C° 0 mm 3 mps 763 mmHg 58%
    04:00 +7°C° 0 mm 3 mps 763 mmHg 58%
    05:00 +7°C° 0 mm 3 mps 763 mmHg 56%
    06:00 +7°C° 0 mm 3 mps 763 mmHg 55%
    07:00 +7°C° 0 mm 3 mps 764 mmHg 53%
    08:00 +10°C° 0 mm 3 mps 763 mmHg 46%
    09:00 +13°C° 0 mm 4 mps 763 mmHg 38%
    10:00 +17°C° 0 mm 4 mps 763 mmHg 30%
    11:00 +19°C° 0 mm 4 mps 762 mmHg 28%
    12:00 +21°C° 0 mm 4 mps 762 mmHg 25%
    13:00 +23°C° 0 mm 4 mps 761 mmHg 23%
    14:00 +23°C° 0 mm 4 mps 760 mmHg 26%
    15:00 +22°C° 0 mm 4 mps 760 mmHg 28%
    16:00 +22°C° 0 mm 4 mps 760 mmHg 30%
    17:00 +20°C° 0 mm 4 mps 760 mmHg 34%
    18:00 +18°C° 0 mm 4 mps 761 mmHg 37%
    19:00 +15°C° 0 mm 4 mps 761 mmHg 41%
    20:00 +14°C° 0 mm 5 mps 761 mmHg 42%
    21:00 +13°C° 0 mm 5 mps 761 mmHg 44%
    22:00 +12°C° 0 mm 5 mps 762 mmHg 45%
    23:00 +12°C° 0 mm 5 mps 762 mmHg 47%

    24 July, Monday

    Time Temperature Precipitation Wind Pressure Humidity
    00:00 +12°C° 0 mm 5 mps 762 mmHg 48%
    01:00 +10°C° 0 mm 5 mps 761 mmHg 49%
    02:00 +10°C° 0 mm 5 mps 761 mmHg 51%
    03:00 +10°C° 0 mm 5 mps 761 mmHg 53%
    04:00 +9°C° 0 mm 5 mps 761 mmHg 55%
    05:00 +10°C° 0 mm 4 mps 762 mmHg 59%
    06:00 +10°C° 0 mm 4 mps 763 mmHg 62%
    07:00 +8°C° 0 mm 4 mps 763 mmHg 65%
    08:00 +12°C° 0 mm 4 mps 763 mmHg 59%
    09:00 +14°C° 0 mm 5 mps 764 mmHg 52%
    10:00 +17°C° 0 mm 5 mps 764 mmHg 45%
    11:00 +19°C° 0 mm 5 mps 764 mmHg 39%
    12:00 +20°C° 0 mm 4 mps 763 mmHg 34%
    13:00 +21°C° 0 mm 4 mps 763 mmHg 28%
    14:00 +21°C° 0 mm 4 mps 763 mmHg 29%
    15:00 +20°C° 0 mm 4 mps 763 mmHg 31%
    16:00 +20°C° 0 mm 4 mps 763 mmHg 32%
    17:00 +18°C° 0 mm 4 mps 763 mmHg 39%
    18:00 +15°C° 0 mm 5 mps 764 mmHg 46%
    19:00 +13°C° 0 mm 5 mps 765 mmHg 54%
    20:00 +12°C° 0 mm 5 mps 765 mmHg 58%
    21:00 +10°C° 0 mm 5 mps 765 mmHg 62%
    22:00 +9°C° 0 mm 5 mps 766 mmHg 67%
    23:00 +10°C° 0 mm 4 mps 766 mmHg 70%

    25 July, Tuesday

    Time Temperature Precipitation Wind Pressure Humidity
    00:00 +8°C° 0 mm 4 mps 765 mmHg 73%
    01:00 +8°C° 0 mm 4 mps 765 mmHg 75%
    02:00 +8°C° 0 mm 4 mps 765 mmHg 77%
    03:00 +7°C° 0 mm 4 mps 765 mmHg 78%
    04:00 +7°C° 0 mm 4 mps 765 mmHg 79%
    05:00 +7°C° 0 mm 4 mps 765 mmHg 79%
    06:00 +7°C° 0 mm 4 mps 765 mmHg 80%
    07:00 +7°C° 0 mm 4 mps 766 mmHg 80%
    08:00 +10°C° 0 mm 4 mps 766 mmHg 69%
    09:00 +13°C° 0 mm 4 mps 766 mmHg 58%
    10:00 +17°C° 0 mm 4 mps 765 mmHg 47%
    11:00 +19°C° 0 mm 3 mps 765 mmHg 42%
    12:00 +21°C° 0 mm 3 mps 764 mmHg 36%
    13:00 +24°C° 0 mm 3 mps 763 mmHg 30%
    14:00 +22°C° 0 mm 3 mps 762 mmHg 32%
    15:00 +22°C° 0 mm 3 mps 762 mmHg 34%
    16:00 +23°C° 0 mm 2 mps 761 mmHg 35%
    17:00 +20°C° 0 mm 3 mps 762 mmHg 40%
    18:00 +18°C° 0 mm 3 mps 762 mmHg 44%
    19:00 +17°C° 0 mm 3 mps 762 mmHg 48%
    20:00 +15°C° 0 mm 4 mps 762 mmHg 50%
    21:00 +15°C° 0 mm 5 mps 762 mmHg 51%
    22:00 +14°C° 0 mm 5 mps 762 mmHg 53%
    23:00 +14°C° 0 mm 5 mps 761 mmHg 54%

    26 July, Wednesday

    Time Temperature Precipitation Wind Pressure Humidity
    00:00 +13°C° 0 mm 5 mps 761 mmHg 55%
    01:00 +13°C° 0 mm 5 mps 761 mmHg 56%
    02:00 +12°C° 0 mm 5 mps 761 mmHg 56%
    03:00 +12°C° 0 mm 5 mps 760 mmHg 56%
    04:00 +12°C° 0 mm 5 mps 760 mmHg 56%
    05:00 +12°C° 0 mm 4 mps 760 mmHg 55%
    06:00 +12°C° 0 mm 4 mps 761 mmHg 54%
    07:00 +12°C° 0 mm 4 mps 761 mmHg 54%
    08:00 +14°C° 0 mm 5 mps 761 mmHg 49%
    09:00 +16°C° 0 mm 5 mps 761 mmHg 45%
    10:00 +20°C° 0 mm 6 mps 761 mmHg 41%
    11:00 +20°C° 0 mm 6 mps 761 mmHg 38%
    12:00 +20°C° 0 mm 7 mps 760 mmHg 35%
    13:00 +21°C° 0 mm 7 mps 760 mmHg 33%
    14:00 +20°C° 0 mm 7 mps 760 mmHg 34%
    15:00 +18°C° 0 mm 7 mps 760 mmHg 36%
    16:00 +18°C° 0 mm 7 mps 760 mmHg 38%
    17:00 +16°C° 0 mm 7 mps 761 mmHg 43%
    18:00 +14°C° 0 mm 7 mps 761 mmHg 48%
    19:00 +12°C° 0 mm 7 mps 762 mmHg 54%
    20:00 +11°C° 0 mm 7 mps 762 mmHg 55%
    21:00 +11°C° 0 mm 7 mps 762 mmHg 57%
    22:00 +10°C° 0 mm 8 mps 763 mmHg 59%
    23:00 +10°C° 0 mm 7 mps 763 mmHg 59%
    Show more